GW1950 Weather Reports


time (UTC)temp
C
wind
direction
speed
KPH
gust
KPH
rain 1hr
cm
rain 24hr
cm
rain mn
cm
humidity
%
barometer
mb
20260906191646 23 300 3.2 3.2 0.00 0.00 0.00 81 1020.0
20260906191146 23 167 0.0 1.6 0.00 0.00 0.00 78 1020.3
20260906190640 23 156 0.0 1.6 0.00 0.00 0.00 80 1020.3
20260906190135 23 333 1.6 1.6 0.00 0.00 0.00 81 1020.5
20260906185634 22 127 0.0 0.0 0.00 0.00 0.00 81 1020.3
20260906185133 23 156 1.6 1.6 0.00 0.00 0.00 79 1020.6
20260906184628 22 167 0.0 0.0 0.00 0.00 0.00 83 1020.5
20260906184124 23 99 1.6 1.6 0.00 0.00 0.00 82 1020.6
20260906183620 23 100 0.0 1.6 0.00 0.00 0.00 80 1021.0
20260906183115 23 235 3.2 3.2 0.00 0.00 0.00 77 1020.8
20260906182610 23 282 1.6 3.2 0.00 0.00 0.00 79 1020.9
20260906182106 23 171 1.6 1.6 0.00 0.00 0.00 78 1020.8
20260906181601 22 248 0.0 1.6 0.00 0.00 0.00 82 1020.8
20260906181057 23 114 0.0 1.6 0.00 0.00 0.00 82 1020.9
20260906180557 23 224 0.0 0.0 0.00 0.00 0.00 82 1021.1
20260906180055 23 171 0.0 0.0 0.00 0.00 0.00 81 1020.9
20260906175555 23 82 1.6 1.6 0.00 0.00 0.00 83 1021.1
20260906175050 23 270 1.6 3.2 0.00 0.00 0.00 81 1021.1
20260906174548 22 171 0.0 0.0 0.00 0.00 0.00 83 1021.0
20260906174043 23 161 0.0 0.0 0.00 0.00 0.00 81 1020.9
20260906173538 23 233 3.2 3.2 0.00 0.00 0.00 80 1021.0
20260906173035 23 161 0.0 0.0 0.00 0.00 0.00 79 1021.0
20260906172529 24 231 1.6 1.6 0.00 0.00 0.00 82 1020.9
20260906172024 23 177 1.6 3.2 0.00 0.00 0.00 82 1021.2
20260906171519 23 112 1.6 1.6 0.00 0.00 0.00 81 1021.1
20260906171015 23 191 1.6 3.2 0.00 0.00 0.00 83 1020.9
20260906170511 24 168 0.0 0.0 0.00 0.00 0.00 83 1020.8
20260906170009 24 101 0.0 1.6 0.00 0.00 0.00 82 1021.0
20260906165506 23 89 0.0 1.6 0.00 0.00 0.00 81 1021.1
20260906165001 23 120 0.0 1.6 0.00 0.00 0.00 83 1020.9
20260906164500 23 92 1.6 1.6 0.00 0.00 0.00 84 1020.8
20260906163957 22 91 1.6 1.6 0.00 0.00 0.00 83 1020.9
20260906163452 22 63 0.0 0.0 0.00 0.00 0.00 84 1021.0
20260906162950 22 150 0.0 0.0 0.00 0.00 0.00 89 1021.2
20260906162449 21 77 1.6 1.6 0.00 0.00 0.00 86 1021.1
20260906161943 21 158 0.0 1.6 0.00 0.00 0.00 89 1021.3
20260906161437 22 158 0.0 0.0 0.00 0.00 0.00 85 1021.2
20260906160931 22 149 0.0 0.0 0.00 0.00 0.00 84 1021.2
20260906160430 22 261 1.6 3.2 0.00 0.00 0.00 84 1021.2
20260906155928 23 326 1.6 1.6 0.00 0.00 0.00 83 1021.2
20260906155422 23 127 0.0 0.0 0.00 0.00 0.00 85 1021.0
20260906154918 22 146 0.0 0.0 0.00 0.00 0.00 89 1021.0
20260906154413 22 140 1.6 1.6 0.00 0.00 0.00 87 1020.9
20260906153912 22 157 0.0 0.0 0.00 0.00 0.00 86 1020.9
20260906153411 22 134 1.6 1.6 0.00 0.00 0.00 87 1021.0
20260906152906 21 137 0.0 1.6 0.00 0.00 0.00 90 1020.8
20260906152401 21 147 0.0 0.0 0.00 0.00 0.00 88 1020.9
20260906151900 21 130 1.6 1.6 0.00 0.00 0.00 89 1020.8
20260906151356 20 159 0.0 0.0 0.00 0.00 0.00 91 1020.9
20260906150851 20 186 1.6 1.6 0.00 0.00 0.00 91 1021.1
20260906150346 20 191 0.0 1.6 0.00 0.00 0.00 91 1021.0
20260906145845 19 127 1.6 3.2 0.00 0.00 0.00 94 1021.1
20260906145344 19 142 1.6 1.6 0.00 0.00 0.00 96 1021.1
20260906144839 18 188 0.0 1.6 0.00 0.00 0.00 95 1021.1
20260906144334 18 124 0.0 0.0 0.00 0.00 0.00 96 1021.0
20260906143834 18 134 1.6 1.6 0.00 0.00 0.00 96 1021.3
20260906143330 18 163 1.6 1.6 0.00 0.00 0.00 94 1021.1
20260906142826 18 159 0.0 0.0 0.00 0.00 0.00 97 1021.1
20260906142321 18 148 0.0 0.0 0.00 0.00 0.00 96 1021.0
20260906141820 18 147 0.0 1.6 0.00 0.00 0.00 94 1021.4
20260906141310 17 192 1.6 1.6 0.00 0.00 0.00 96 1021.3
20260906140808 17 153 0.0 0.0 0.00 0.00 0.00 96 1021.2
20260906140303 17 86 0.0 1.6 0.00 0.00 0.00 97 1021.1
20260906135801 17 133 0.0 1.6 0.00 0.00 0.00 97 1021.2
20260906135256 17 153 0.0 0.0 0.00 0.00 0.00 97 1021.1
20260906134751 17 174 0.0 0.0 0.00 0.00 0.00 97 1021.2
20260906134247 16 164 1.6 3.2 0.00 0.00 0.00 98 1021.3
20260906133742 16 166 0.0 0.0 0.00 0.00 0.00 99 1021.3
20260906133238 16 215 1.6 1.6 0.00 0.00 0.00 98 1021.3
20260906132733 16 204 1.6 1.6 0.00 0.00 0.00 99 1021.3
20260906132228 16 104 0.0 1.6 0.00 0.00 0.00 99 1021.2
20260906131724 16 156 0.0 0.0 0.00 0.00 0.00 99 1021.2
20260906131219 15 180 1.6 3.2 0.00 0.00 0.00 99 1021.0
20260906130714 15 107 0.0 0.0 0.00 0.00 0.00 99 1021.1
20260906130208 15 147 3.2 4.8 0.00 0.00 0.00 99 1021.0
20260906125702 15 157 0.0 1.6 0.00 0.00 0.00 99 1021.2
20260906125200 15 149 0.0 0.0 0.00 0.00 0.00 99 1020.9
20260906124655 15 200 0.0 1.6 0.00 0.00 0.00 99 1020.8
20260906124151 15 158 0.0 0.0 0.00 0.00 0.00 99 1020.8
20260906123649 15 89 0.0 0.0 0.00 0.00 0.00 99 1021.0
20260906123145 15 154 0.0 0.0 0.00 0.00 0.00 99 1020.8
20260906122644 15 167 0.0 1.6 0.00 0.00 0.00 99 1020.9
20260906122140 15 153 0.0 0.0 0.00 0.00 0.00 99 1021.0
20260906121636 15 230 1.6 1.6 0.00 0.00 0.00 99 1020.9
20260906121132 15 246 6.4 8.0 0.00 0.00 0.00 99 1020.8
20260906120627 15 164 1.6 1.6 0.00 0.00 0.00 99 1020.8
20260906120125 15 162 0.0 1.6 0.00 0.00 0.00 99 1020.6
20260906115624 15 234 1.6 1.6 0.00 0.00 0.00 99 1020.4
20260906115120 15 130 0.0 1.6 0.00 0.00 0.00 99 1020.6
20260906114614 15 184 0.0 0.0 0.00 0.00 0.00 99 1020.5
20260906114109 15 195 1.6 3.2 0.00 0.00 0.00 99 1020.2
20260906113608 15 233 1.6 1.6 0.00 0.00 0.00 99 1020.6
20260906113103 15 87 1.6 3.2 0.00 0.00 0.00 99 1020.2
20260906112603 15 352 1.6 1.6 0.00 0.00 0.00 99 1020.4
20260906112059 15 218 3.2 3.2 0.00 0.00 0.00 99 1020.5
20260906111559 15 300 1.6 1.6 0.00 0.00 0.00 99 1020.6
20260906111055 15 126 0.0 1.6 0.00 0.00 0.00 99 1020.3
20260906110554 15 283 3.2 3.2 0.00 0.00 0.00 99 1020.3
20260906110054 15 240 1.6 4.8 0.00 0.00 0.00 99 1020.4
20260906105548 15 144 0.0 0.0 0.00 0.00 0.00 99 1020.4
20260906105045 15 312 3.2 4.8 0.00 0.00 0.00 99 1020.1
20260906104543 15 162 0.0 1.6 0.00 0.00 0.00 99 1020.2
20260906104038 15 234 0.0 1.6 0.00 0.00 0.00 99 1020.3
20260906103536 15 170 0.0 0.0 0.00 0.00 0.00 99 1020.2
20260906103032 15 187 1.6 1.6 0.00 0.00 0.00 99 1020.2
20260906102532 15 212 1.6 1.6 0.00 0.00 0.00 99 1020.2
20260906102027 15 287 0.0 1.6 0.00 0.00 0.00 99 1020.2
20260906101527 15 243 0.0 0.0 0.00 0.00 0.00 99 1020.3
20260906101021 15 188 1.6 1.6 0.00 0.00 0.00 99 1020.0
20260906100517 15 156 3.2 4.8 0.00 0.00 0.00 99 1019.9
20260906100012 15 170 1.6 8.0 0.00 0.00 0.00 99 1020.2
20260906095507 15 45 3.2 4.8 0.00 0.00 0.00 99 1020.1
20260906095002 15 156 0.0 1.6 0.00 0.00 0.00 99 1020.3
20260906094501 15 298 1.6 1.6 0.00 0.00 0.00 99 1020.2
20260906093957 14 183 0.0 0.0 0.00 0.00 0.00 99 1020.1
20260906093453 14 165 0.0 0.0 0.00 0.00 0.00 99 1020.1
20260906092948 13 259 3.2 3.2 0.00 0.00 0.00 99 1019.9
20260906092448 13 148 0.0 1.6 0.00 0.00 0.00 99 1020.3
20260906091942 13 204 0.0 0.0 0.00 0.00 0.00 99 1020.1
20260906091438 13 163 0.0 0.0 0.00 0.00 0.00 99 1020.1
20260906090934 14 179 0.0 0.0 0.00 0.00 0.00 99 1020.1
20260906090429 13 165 0.0 0.0 0.00 0.00 0.00 99 1020.0
20260906085924 13 172 0.0 0.0 0.00 0.00 0.00 99 1020.0
20260906085424 13 154 0.0 0.0 0.00 0.00 0.00 99 1020.2
20260906084923 13 153 0.0 1.6 0.00 0.00 0.00 99 1020.2
20260906084418 13 204 1.6 3.2 0.00 0.00 0.00 99 1020.2
20260906083917 14 178 0.0 1.6 0.00 0.00 0.00 99 1020.2
20260906083413 14 169 0.0 0.0 0.00 0.00 0.00 99 1020.3
20260906082912 14 136 0.0 0.0 0.00 0.00 0.00 99 1020.1
20260906082407 14 157 0.0 0.0 0.00 0.00 0.00 99 1020.3
20260906081903 14 144 0.0 0.0 0.00 0.00 0.00 99 1020.1
20260906081358 14 172 0.0 0.0 0.00 0.00 0.00 99 1020.0
20260906080854 14 142 0.0 0.0 0.00 0.00 0.00 99 1020.3
20260906080351 14 285 1.6 3.2 0.00 0.00 0.00 99 1020.1
20260906075849 14 150 0.0 0.0 0.00 0.00 0.00 99 1020.2
20260906075344 14 150 0.0 0.0 0.00 0.00 0.00 99 1020.0
20260906074840 14 350 1.6 1.6 0.00 0.00 0.00 99 1020.0
20260906074339 14 150 0.0 0.0 0.00 0.00 0.00 99 1020.1
20260906073838 14 135 0.0 0.0 0.00 0.00 0.00 99 1020.3
20260906073333 14 141 0.0 0.0 0.00 0.00 0.00 99 1020.1
20260906072830 14 159 0.0 0.0 0.00 0.00 0.00 99 1020.1
20260906072325 14 161 0.0 0.0 0.00 0.00 0.00 99 1020.3
20260906071821 14 160 0.0 0.0 0.00 0.00 0.00 99 1020.2
20260906071315 14 152 0.0 0.0 0.00 0.00 0.00 99 1020.3
20260906070813 15 156 0.0 0.0 0.00 0.00 0.00 99 1020.5
20260906070308 15 149 0.0 0.0 0.00 0.00 0.00 99 1020.4
20260906065807 15 155 0.0 0.0 0.00 0.00 0.00 99 1020.5
20260906065305 15 165 0.0 0.0 0.00 0.00 0.00 99 1020.5
20260906064758 15 180 0.0 0.0 0.00 0.00 0.00 99 1020.8
20260906064254 15 159 0.0 0.0 0.00 0.00 0.00 99 1020.3
20260906063749 15 135 0.0 0.0 0.00 0.00 0.00 99 1020.5
20260906063244 15 140 0.0 0.0 0.00 0.00 0.00 99 1020.1
20260906062739 15 163 0.0 0.0 0.00 0.00 0.00 99 1020.4
20260906062238 15 179 0.0 0.0 0.00 0.00 0.00 99 1020.1
20260906061734 15 167 0.0 0.0 0.00 0.00 0.00 99 1020.1
20260906061231 15 147 0.0 0.0 0.00 0.00 0.00 99 1019.9
20260906060726 15 161 0.0 1.6 0.00 0.00 0.00 99 1019.9
20260906060224 15 162 0.0 1.6 0.00 0.00 0.00 99 1019.7
20260906055719 15 204 1.6 1.6 0.00 0.00 0.00 99 1019.8
20260906055214 15 153 0.0 0.0 0.00 0.00 0.00 99 1019.8
20260906054710 15 174 0.0 0.0 0.00 0.00 0.00 99 1019.6
20260906054210 15 155 0.0 0.0 0.00 0.00 0.00 99 1019.7
20260906053707 15 157 0.0 0.0 0.00 0.00 0.00 99 1019.7
20260906053201 15 153 0.0 0.0 0.00 0.00 0.00 99 1019.6
20260906052656 15 163 0.0 0.0 0.00 0.00 0.00 99 1019.7
20260906052153 15 159 0.0 0.0 0.00 0.00 0.00 99 1019.5
20260906051650 15 149 0.0 0.0 0.00 0.00 0.00 99 1019.6
20260906051149 15 158 1.6 1.6 0.00 0.00 0.00 99 1019.6
20260906050644 15 135 0.0 0.0 0.00 0.00 0.00 99 1019.7
20260906050139 15 162 0.0 0.0 0.00 0.00 0.00 99 1019.8
20260906045638 15 165 0.0 1.6 0.00 0.00 0.00 99 1019.3
20260906045133 15 207 0.0 1.6 0.00 0.00 0.00 99 1019.4
20260906044629 15 192 0.0 1.6 0.00 0.00 0.00 99 1019.5
20260906044124 15 158 0.0 0.0 0.00 0.00 0.00 99 1019.5
20260906043621 15 183 1.6 1.6 0.00 0.00 0.00 99 1019.2
20260906043116 15 175 0.0 0.0 0.00 0.00 0.00 99 1019.3
20260906042615 15 157 0.0 0.0 0.00 0.00 0.00 99 1019.3
20260906042109 15 186 0.0 1.6 0.00 0.00 0.00 99 1019.4
20260906041606 15 184 0.0 0.0 0.00 0.00 0.00 99 1019.6
20260906041100 15 146 0.0 1.6 0.00 0.00 0.00 99 1019.8
20260906040556 15 158 0.0 1.6 0.00 0.00 0.00 99 1019.4
20260906040051 15 150 0.0 0.0 0.00 0.00 0.00 99 1019.4
20260906035546 15 146 0.0 0.0 0.00 0.00 0.00 99 1019.3
20260906035037 15 253 0.0 1.6 0.00 0.00 0.00 99 1019.3
20260906034536 15 163 0.0 0.0 0.00 0.00 0.00 99 1019.5
20260906034031 15 155 0.0 0.0 0.00 0.00 0.00 99 1019.5
20260906033526 15 219 0.0 1.6 0.00 0.00 0.00 99 1019.1
20260906033021 15 158 0.0 0.0 0.00 0.00 0.00 99 1019.4
20260906032518 15 145 0.0 0.0 0.00 0.00 0.00 99 1019.3
20260906032012 15 157 0.0 0.0 0.00 0.00 0.00 99 1019.2
20260906031508 15 168 0.0 0.0 0.00 0.00 0.00 99 1019.3
20260906031003 15 191 0.0 1.6 0.00 0.00 0.00 99 1019.2
20260906030457 15 178 0.0 1.6 0.00 0.00 0.00 99 1019.1
20260906025952 15 174 0.0 0.0 0.00 0.00 0.00 99 1019.2
20260906025451 15 153 0.0 0.0 0.00 0.00 0.00 99 1018.9
20260906024950 15 154 0.0 0.0 0.00 0.00 0.00 99 1018.9
20260906024445 15 176 0.0 0.0 0.00 0.00 0.00 99 1018.9
20260906023944 15 159 0.0 0.0 0.00 0.00 0.00 99 1019.0
20260906023441 15 162 0.0 0.0 0.00 0.00 0.00 99 1019.0
20260906022936 15 155 0.0 0.0 0.00 0.00 0.00 99 1019.0
20260906022432 15 147 0.0 0.0 0.00 0.00 0.00 99 1019.3
20260906021927 15 158 0.0 0.0 0.00 0.00 0.00 99 1018.9
20260906021426 15 160 0.0 0.0 0.00 0.00 0.00 99 1018.7
20260906020920 15 153 0.0 0.0 0.00 0.00 0.00 99 1018.8
20260906020415 15 191 0.0 0.0 0.00 0.00 0.00 99 1019.0
20260906015909 15 156 0.0 0.0 0.00 0.00 0.00 99 1019.2
20260906015409 15 159 0.0 0.0 0.00 0.00 0.00 99 1019.0
20260906014908 15 138 0.0 0.0 0.00 0.00 0.00 99 1019.0
20260906014403 15 128 0.0 0.0 0.00 0.00 0.00 99 1019.1
20260906013859 15 144 0.0 0.0 0.00 0.00 0.00 99 1019.0
20260906013355 16 179 0.0 0.0 0.00 0.00 0.00 99 1018.9
20260906012850 16 181 0.0 0.0 0.00 0.00 0.00 99 1018.8
20260906012345 16 166 0.0 0.0 0.00 0.00 0.00 99 1018.7
20260906011844 16 145 0.0 0.0 0.00 0.00 0.00 99 1018.7
20260906011339 16 158 0.0 0.0 0.00 0.00 0.00 99 1018.8
20260906010835 16 159 0.0 0.0 0.00 0.00 0.00 99 1018.9
20260906010331 16 149 0.0 0.0 0.00 0.00 0.00 99 1018.7
20260906005827 16 156 0.0 0.0 0.00 0.00 0.00 99 1018.4
20260906005325 16 169 0.0 0.0 0.00 0.00 0.00 99 1018.8
20260906004825 16 167 0.0 0.0 0.00 0.00 0.00 99 1018.7
20260906004324 16 148 0.0 0.0 0.00 0.00 0.00 99 1018.5
20260906003820 17 157 0.0 0.0 0.00 0.00 0.00 99 1018.6
20260906003315 17 160 0.0 0.0 0.00 0.00 0.00 99 1018.7
20260906002811 17 156 0.0 0.0 0.00 0.00 0.00 99 1018.8
20260906002309 17 154 0.0 0.0 0.00 0.00 0.00 99 1018.6
20260906001806 17 154 0.0 0.0 0.00 0.00 0.00 99 1018.7
20260906001301 17 152 0.0 0.0 0.00 0.00 0.00 99 1018.9
20260906000755 18 151 0.0 0.0 0.00 0.00 0.00 99 1018.8
20260906000250 18 151 0.0 0.0 0.00 0.00 0.00 99 1018.7
20260905235745 18 150 0.0 0.0 0.00 0.00 0.00 98 1018.7
20260905235244 18 149 0.0 0.0 0.00 0.00 0.00 98 1018.9
20260905234740 18 149 0.0 0.0 0.00 0.00 0.00 97 1018.6
20260905234235 18 149 0.0 0.0 0.00 0.00 0.00 96 1018.7
20260905233731 19 148 0.0 0.0 0.00 0.00 0.00 96 1018.9
20260905233230 19 138 0.0 0.0 0.00 0.00 0.00 95 1018.9
20260905232730 19 156 0.0 0.0 0.00 0.00 0.00 94 1018.7
20260905232226 19 152 0.0 0.0 0.00 0.00 0.00 93 1018.8
20260905231721 19 153 0.0 0.0 0.00 0.00 0.00 91 1018.7
20260905231217 20 156 0.0 0.0 0.00 0.00 0.00 91 1019.0
20260905230713 20 169 0.0 0.0 0.00 0.00 0.00 91 1018.8
20260905230210 20 152 0.0 0.0 0.00 0.00 0.00 90 1018.8
20260905225710 20 155 0.0 0.0 0.00 0.00 0.00 90 1018.9
20260905225206 20 163 0.0 0.0 0.00 0.00 0.00 90 1018.9
20260905224705 20 163 0.0 0.0 0.00 0.00 0.00 89 1019.1
20260905224200 20 190 0.0 1.6 0.00 0.00 0.00 88 1019.0
20260905223656 21 163 0.0 0.0 0.00 0.00 0.00 89 1019.3
20260905223153 21 157 0.0 0.0 0.00 0.00 0.00 86 1019.1
20260905222648 20 171 0.0 0.0 0.00 0.00 0.00 88 1019.0
20260905222148 21 173 0.0 0.0 0.00 0.00 0.00 87 1019.0
20260905221644 21 213 0.0 0.0 0.00 0.00 0.00 87 1018.9
20260905221141 21 166 0.0 0.0 0.00 0.00 0.00 88 1018.6
20260905220636 21 193 0.0 0.0 0.00 0.00 0.00 87 1018.5
20260905220132 21 170 0.0 0.0 0.00 0.00 0.00 89 1018.6
20260905215631 20 50 1.6 1.6 0.00 0.00 0.00 90 1018.7
20260905215127 20 170 1.6 1.6 0.00 0.00 0.00 90 1018.9
20260905214623 20 314 1.6 1.6 0.00 0.00 0.00 90 1018.8
20260905214118 20 238 1.6 1.6 0.00 0.00 0.00 91 1019.0
20260905213613 20 318 3.2 3.2 0.00 0.00 0.00 91 1019.0
20260905213108 20 258 1.6 3.2 0.00 0.00 0.00 92 1018.9
20260905212603 20 321 3.2 3.2 0.00 0.00 0.00 91 1018.4
20260905212103 21 270 3.2 3.2 0.00 0.00 0.00 89 1018.8
20260905211558 20 252 1.6 1.6 0.00 0.00 0.00 91 1018.6
20260905211053 20 22 6.4 8.0 0.00 0.00 0.00 92 1018.9
20260905210549 20 43 4.8 8.0 0.00 0.00 0.00 91 1018.9
20260905210044 20 176 1.6 1.6 0.00 0.00 0.00 93 1018.8
20260905205543 20 37 1.6 3.2 0.00 0.00 0.00 92 1019.1
20260905205043 20 309 1.6 3.2 0.00 0.00 0.00 92 1019.0
20260905204538 20 19 3.2 3.2 0.00 0.00 0.00 93 1019.3
20260905204033 20 0 4.8 4.8 0.00 0.00 0.00 92 1019.2
20260905203532 20 12 1.6 4.8 0.00 0.00 0.00 91 1019.0
20260905203028 20 163 3.2 4.8 0.00 0.00 0.00 92 1019.0
20260905202523 21 314 4.8 8.0 0.00 0.00 0.00 90 1019.4
20260905202019 20 39 6.4 9.7 0.00 0.00 0.00 90 1019.3
20260905201514 20 286 1.6 3.2 0.00 0.00 0.00 91 1019.4
20260905201014 21 232 4.8 4.8 0.00 0.00 0.00 89 1019.1
20260905200509 20 125 1.6 3.2 0.00 0.00 0.00 91 1019.4
20260905200009 21 12 3.2 3.2 0.00 0.00 0.00 89 1019.3
20260905195503 21 264 4.8 4.8 0.00 0.00 0.00 87 1019.0
20260905194958 22 343 3.2 3.2 0.00 0.00 0.00 84 1018.9
20260905194457 22 182 1.6 3.2 0.00 0.00 0.00 82 1018.8
20260905193952 22 212 3.2 4.8 0.00 0.00 0.00 82 1019.1
20260905193452 22 278 3.2 3.2 0.00 0.00 0.00 82 1018.8
20260905192947 22 100 1.6 3.2 0.00 0.00 0.00 82 1018.8
20260905192443 21 211 3.2 4.8 0.00 0.00 0.00 85 1018.8
20260905191938 21 305 3.2 4.8 0.00 0.00 0.00 86 1019.1